Estación Meteorológica Peña el Pijo (Robertgarden) [ 09/29/20 11:09:27 CEST ]

Fecha Hora Presion(HPa) Temp (°C) Humedad % Rocio (°C) Viento ( m/s) Direccion Lluvia 1Hora(mm) Lluvia 24H(mm) LLuvia Total(mm)
2020-Apr-13 01:09:33 1001.700 - - - - W     39.88
2020-Apr-13 02:09:43 1001.300 - - - - W     39.88
2020-Apr-13 03:09:19 1000.700 - - - - W     39.88
2020-Apr-13 04:09:15 1000.300 - - - - W     39.88
2020-Apr-13 05:09:24 999.700 - - - - W     39.88
2020-Apr-13 06:09:04 999.900 - - - - W     39.88
2020-Apr-13 07:09:46 999.300 - - - - W     39.88
2020-Apr-13 08:09:49 999.600 - - - - W     39.88
2020-Apr-13 09:09:59 999.500 - - - - W     39.88
2020-Apr-13 10:09:07 999.100 - - - - W     39.88
2020-Apr-13 11:08:53 999.000 - - - - W     39.88
2020-Apr-13 12:09:08 998.800 - - - - W     39.88
2020-Apr-13 13:08:59 998.700 - - - - W     39.88
2020-Apr-13 14:08:54 998.500 - - - - W     39.88
2020-Apr-13 15:09:25 997.800 - - - - W     39.88
2020-Apr-13 16:09:45 997.400 - - - - W     39.88
2020-Apr-13 17:09:23 997.800 - - - - W     39.88
2020-Apr-13 18:09:14 998.000 - - - - W     39.88
2020-Apr-13 19:09:51 998.300 - - - - W     39.88
2020-Apr-13 20:09:23 998.700 - - - - W     39.88
2020-Apr-13 21:09:32 999.400 - - - - W     39.88
2020-Apr-13 22:08:51 1001.100 - - - - W     39.88
2020-Apr-13 23:08:59 1001.800 - - - - W     39.88

Temperatura Máxima:    Temperatura Mínima:
Presión Máxima:1001.800 Hpa    Presión Mínima:997.400 Hpa


Volver